This demonstration page uses our WeatherBlox Daily Observations layout. Learn more.

Left ArrowRight Arrow

36.17497, -115.13722

Hourly Observations for November 15, 2021

Temp ( °F °C ) Dew Point ( °F °C ) Humidity (%) Winds ( mph kmh ) Pressure ( in mb ) Visibility ( mi km ) Precip ( " mm )
12:53 am 00:53 Clear 57 13.9 30 -1.1 36 36 NW 6 9 30.18 1022 10 16 0.00 0.00
1:53 am 01:53 Clear 56 13.3 30 -1.1 37 37 WNW 7 11 30.18 1022 10 16 0.00 0.00
2:53 am 02:53 Clear 54 12.2 30 -1.1 40 40 Calm 30.17 1022 10 16 0.00 0.00
3:53 am 03:53 Clear 54 12.2 28 -2.2 37 37 WNW 6 9 30.18 1022 10 16 0.00 0.00
4:53 am 04:53 Clear 55 12.8 28 -2.2 35 35 NNW 5 7 30.19 1022 10 16 0.00 0.00
5:53 am 05:53 Clear 52 11.1 28 -2.2 40 40 NW 7 11 30.21 1023 10 16 0.00 0.00
6:53 am 06:53 Sunny 53 11.7 31 -0.6 43 43 W 3 6 30.22 1023 10 16 0.00 0.00
7:53 am 07:53 Sunny 59 15 31 -0.6 35 35 Calm 30.23 1024 10 16 0.00 0.00
8:53 am 08:53 Sunny 64 17.8 29 -1.7 27 27 Calm 30.23 1024 10 16 0.00 0.00
9:53 am 09:53 Sunny 69 20.6 25 -3.9 19 19 E 8 13 30.22 1023 10 16 0.00 0.00
10:53 am 10:53 Sunny 72 22.2 28 -2.2 19 19 E 6 9 30.19 1023 10 16 0.00 0.00
11:53 am 11:53 Sunny 74 23.3 28 -2.2 18 18 ESE 6 9 30.16 1021 10 16 0.00 0.00
12:53 pm 12:53 Sunny 75 23.9 28 -2.2 18 18 SSE 3 6 30.13 1020 10 16 0.00 0.00
1:53 pm 13:53 Sunny 77 25 28 -2.2 16 16 SE 6 9 30.10 1019 10 16 0.00 0.00
2:53 pm 14:53 Sunny 77 25 28 -2.2 16 16 ESE 3 6 30.08 1019 10 16 0.00 0.00
3:53 pm 15:53 Sunny 76 24.4 28 -2.2 17 17 Calm 30.06 1018 10 16 0.00 0.00
4:53 pm 16:53 Clear 74 23.3 29 -1.7 19 19 SW 3 6 30.06 1018 10 16 0.00 0.00
5:53 pm 17:53 Clear 71 21.7 29 -1.7 21 21 NNE 3 6 30.06 1018 10 16 0.00 0.00
6:53 pm 18:53 Clear 67 19.4 30 -1.1 25 25 NW 6 9 30.06 1018 10 16 0.00 0.00
7:53 pm 19:53 Clear 65 18.3 32 0 29 29 WNW 5 7 30.06 1018 10 16 0.00 0.00
8:53 pm 20:53 Clear 63 17.2 31 -0.6 30 30 WNW 5 7 30.05 1018 10 16 0.00 0.00
9:53 pm 21:53 Clear 61 16.1 32 0 34 34 NW 6 9 30.04 1017 10 16 0.00 0.00
10:53 pm 22:53 Clear 60 15.6 31 -0.6 33 33 NW 5 7 30.02 1017 10 16 0.00 0.00
11:53 pm 23:53 Clear 60 15.6 31 -0.6 33 33 WNW 6 9 30.01 1016 10 16 0.00 0.00

Powered by AerisWeather